Location: Владивосток
(43.1151°N, 131.8856°E)
Time: 02:37:09
(UTC+10:00)

FO-29 - Pass Details

Date: 28 April 2024
Orbit: 801 x 1320 km, 98.6° (Epoch: 19 May)

Event Time Altitude Azimuth Distance (km) Brightness Sun altitude
Rises 04:53:35 0° 3° (N) 4,228 13.4 -13.3°
Reaches altitude 10° 04:56:52 10° 350° (N) 3,303 12.6 -12.8°
Maximum altitude 05:02:29 23° 303° (WNW) 2,504 11.4 -11.9°
Enters shadow 05:07:49 11° 258° (WSW) 3,251 11.6 -11.1°
